Simultaneous Nadir Overpasses (SNOs) Predictions

Prediction of SNOs between GOES-15 and METOP-B Satellite Orbit:

Table of predicted SNOs for the next 14.0 days since TLE Epoch: 12/3/2022
Index Date Time (GOES-15) GOES-15 Lat,Lon METOP-B Lat,Lon Distance(km) Time Diff (sec)
1 12/04/2022 05:59:37 0.16,-127.87 0.20,-127.70 19.05 80
2 12/06/2022 18:00:30 -0.15,-127.78 -0.27,-127.27 57.71 80
3 12/08/2022 06:19:31 0.14,-127.74 -0.80,-131.86 469.25 80
4 12/09/2022 05:56:12 0.14,-127.71 0.32,-126.87 95.49 80
5 12/10/2022 18:15:04 -0.13,-127.63 0.73,-131.42 432.94 80
6 12/11/2022 17:57:06 -0.13,-127.59 -0.41,-126.44 132.17 80
7 12/13/2022 06:16:06 0.12,-127.56 -0.66,-131.02 394.92 80
8 12/14/2022 05:52:48 0.12,-127.52 0.47,-126.04 169.50 80
9 12/15/2022 18:11:40 -0.11,-127.43 0.57,-130.59 359.99 80
10 12/16/2022 17:53:41 -0.11,-127.39 -0.51,-125.59 204.78 80
